Weather History for KMIW - November, 2012

Change the Weather History Date:

Monday, November 19, 2012

  Actual Average Record
Temperature  
Mean Temperature 48 °F 34 °F  
Max Temperature 59 °F 44 °F 64 °F (2007)
Min Temperature 36 °F 25 °F 15 °F (1997)
Degree Days  
Heating Degree Days 17 31  
Month to date heating degree days 420 490  
Since 1 July heating degree days 1050 1123  
Cooling Degree Days 0 0  
Month to date cooling degree days 0 0  
Year to date cooling degree days 1082 728  
Moisture  
Dew Point 41 °F    
Average Humidity 75    
Maximum Humidity 100    
Minimum Humidity 50    
Precipitation  
Precipitation 0.12 in 0.04 in 0.29 in (2004)
Month to date precipitation 1.11 1.76  
Sea Level Pressure  
Sea Level Pressure 30.07 in    
Wind  
Wind Speed 9 mph (SSE)    
Max Wind Speed 17 mph    
Max Gust Speed 22 mph    
Visibility 7 miles    
Events Fog , Rain    
T = Trace of Precipitation, MM = Missing Value Source: NWS Daily Summary

Daily Weather History Graph

Daily Weather History Graph

Search for Another Location

Airport or City:

Trip Planner

Search our weather history database for the weather conditions in past years. The results will help you decide how hot, cold, wet, or windy it might be!

Date:

Astronomy

Nov. 19, 2012 Rise Set
Actual Time 7:07 AM CST 4:46 PM CST
Civil Twilight 6:36 AM CST 5:17 PM CST
Nautical Twilight 6:02 AM CST 5:51 PM CST
Astronomical Twilight 5:29 AM CST 6:24 PM CST
Moon 12:08 PM CST (11/19) 11:17 PM CST (11/19)
Length of Visible Light 10h 40m
Length of Day
9h 39m
Waxing Crescent, 41% of the Moon is Illuminated
Nov 19
Waxing Crescent
Nov 20
First Quarter
Nov 28
Full
Dec 6
Last Quarter
Dec 13
New

Hourly Weather History & Observations

Time (CST) Temp. Windchill Dew Point Humidity Pressure Visibility Wind Dir Wind Speed Gust Speed Precip Events Conditions
12:53 AM 50.0 °F - 34.0 °F 54% 30.16 in 10.0 mi SSE 10.4 mph - 0.00 in Rain Light Rain
1:53 AM 46.9 °F - 39.0 °F 74% 30.17 in 10.0 mi SSE 9.2 mph - 0.05 in Rain Light Rain
2:53 AM 45.0 °F 38.9 °F 41.0 °F 86% 30.14 in 9.0 mi SE 12.7 mph - 0.07 in Rain Light Rain
3:53 AM 46.9 °F - 39.9 °F 77% 30.11 in 10.0 mi SSE 11.5 mph 20.7 mph 0.00 in   Overcast
4:53 AM 46.0 °F 41.0 °F 39.9 °F 79% 30.12 in 10.0 mi SSE 10.4 mph - N/A   Overcast
5:53 AM 46.9 °F - 39.9 °F 77% 30.11 in 10.0 mi SSE 9.2 mph - N/A   Overcast
6:53 AM 45.0 °F 40.1 °F 39.9 °F 82% 30.10 in 10.0 mi SSE 9.2 mph - N/A   Clear
7:53 AM 45.0 °F 40.6 °F 39.0 °F 80% 30.10 in 10.0 mi SSE 8.1 mph - N/A   Clear
8:53 AM 48.0 °F - 41.0 °F 77% 30.10 in 10.0 mi SSE 11.5 mph - N/A   Clear
9:53 AM 52.0 °F - 42.1 °F 69% 30.10 in 10.0 mi South 12.7 mph - N/A   Clear
10:53 AM 54.0 °F - 44.1 °F 69% 30.09 in 10.0 mi South 12.7 mph - N/A   Clear
11:53 AM 55.9 °F - 45.0 °F 67% 30.06 in 10.0 mi SSW 11.5 mph - N/A   Clear
12:53 PM 57.0 °F - 46.0 °F 67% 30.04 in 10.0 mi South 11.5 mph - N/A   Clear
1:53 PM 57.9 °F - 46.0 °F 65% 30.03 in 10.0 mi South 11.5 mph - N/A   Partly Cloudy
2:53 PM 57.9 °F - 46.0 °F 65% 30.03 in 10.0 mi South 10.4 mph - N/A   Mostly Cloudy
3:53 PM 57.0 °F - 46.9 °F 69% 30.04 in 10.0 mi South 5.8 mph - N/A   Clear
4:53 PM 54.0 °F - 45.0 °F 72% 30.04 in 10.0 mi SSE 3.5 mph - N/A   Clear
5:53 PM 50.0 °F - 44.1 °F 80% 30.05 in 10.0 mi SE 3.5 mph - N/A   Clear
6:53 PM 48.0 °F - 44.1 °F 86% 30.06 in 10.0 mi SSE 4.6 mph - N/A   Clear
7:53 PM 42.1 °F 37.1 °F 41.0 °F 96% 30.06 in 8.0 mi ESE 8.1 mph - N/A   Clear
8:53 PM 42.1 °F 37.7 °F 41.0 °F 96% 30.06 in 4.0 mi ESE 6.9 mph - N/A   Clear
9:23 PM 41.0 °F 35.8 °F 41.0 °F 100% 30.04 in 2.5 mi ESE 8.1 mph - N/A   Clear
9:36 PM 39.2 °F 35.0 °F 39.2 °F 100% 30.04 in 1.0 mi SE 5.8 mph - N/A   Clear
9:51 PM 39.2 °F 35.0 °F 39.2 °F 100% 30.04 in 0.5 mi ESE 5.8 mph - N/A Fog Fog
9:53 PM 39.9 °F 35.8 °F 39.9 °F 100% 30.06 in 0.5 mi ESE 5.8 mph - N/A Fog Fog
10:23 PM 41.0 °F 39.0 °F 41.0 °F 100% 30.04 in 0.2 mi SE 3.5 mph - N/A Fog Fog
10:53 PM 39.0 °F - 39.0 °F 100% 30.06 in 0.2 mi Calm Calm - N/A Fog Fog
11:53 PM 36.0 °F 32.1 °F 36.0 °F 100% 30.05 in 0.2 mi East 4.6 mph - N/A Fog Fog